Погода в Кишиневе

Погода в Кишиневе : погода сейчас, прогноз погоды и архив. Всё, что Вы хотите узнать о погоде в Кишиневе!

Хотите узнать прогноз погоды в Кишинёве? Тогда Вам сюда: Погода в Кишинёве

Поиск расширенной информации на нашем сайте:

Другие новости

Новости СМИ2

Главная страница сайта

Новости сайта

03.07.2017

Напоминаем, что на нашем специализированном сайте Метеоцентр.Азия вы можете получить высокодетализированные автоматические прогнозы погоды по пунктам России, СНГ и мира в авиационном формате (включающие направление и скорость ветра, видимость, явления погоды, количество и форму облачности, нижнюю и верхнюю границу облачности).


Погода в Кишиневе - сегодня

Время (UTC), дата Ветер
(°,м/с) 
Видим.   Явления Облачность Т
(°С)
Тd
(°С)
f(%) Тe
(°С)
Pmin
(гПа)
dP
(гПа)
Po
(мм)
O2
(г/м3)
Тmin Tmax R s Состояние
почвы
12 11.12.17 200 (Ю) 20000 м    10/3 600 м средняя 
[Sc|Ac trans]
+1.8 -2.7 72 -1  1012.3  0.1  743  298           
15 11.12.17 210 (ЮЗ) 20000 м    8/3 600 м средняя, верхняя 
[Sc|Ac trans|Ci fib]
+2.4 -2.3 71 +1  1012.5  0.3  744  297           
18 11.12.17 210 (ЮЗ) 20000 м    ясно 450 м 
+4 -2.8 61 +2  1012.7  0.3  744  296    +4.4       
21 11.12.17 220 (ЮЗ) 20000 м    4/0 верхняя 
[Ci fib]
+3 -3.1 64 +1  1011.7  -1.1  743  296           
00 12.12.17 220 (ЮЗ) 20000 м    3/0 средняя, верхняя 
[Ac trans|Ci fib]
+2.2 -2.7 70 +1  1011.4  -0.3  743  297           
03 12.12.17 240 (ЮЗ) 20000 м    3/0 средняя 
[Ac trans]
+2.2 -2.5 71 +2  1011.7  0.3  743  297           
06 12.12.17 250 (З) 20000 м    10/4 400 м средняя, верхняя 
[Sc|Ac trans|Ci fib]
+2.5 -1.5 75 1012.3  0.6  743  297  +1.9      мокрый или
старый снег
50-90% 
09 12.12.17 240 (ЮЗ) 20000 м    8/0 средняя, верхняя 
[Ac trans|Ci fib]
+5.5 -0.6 65 +4  1012.3  0.2  744  294           
12 12.12.17 230 (ЮЗ) 20000 м    8/0 средняя, верхняя 
[Ac trans|Ci fib]
+7.2 +1.1 65 +6  1012.3  0.1  744  292           
15 12.12.17 тихо ()   20000 м    9/0 средняя, верхняя 
[Ac trans|Ci fib]
+6.5 +1.8 72 +7  1013.9  1.6  745  293           
18 12.12.17 240 (ЮЗ) 20000 м    4/0 средняя, верхняя 
[Ac trans|Ci fib]
+5.6 +1.7 76 +5  1014.2  0.2  745  294    +7.5       
21 12.12.17 тихо ()   10 км    5/0 верхняя 
[Ci fib]
+5.5 +2 78 +6  1015  0.8  746  294           
00 13.12.17 280 (З) 10 км    5/0 средняя, верхняя 
[Ac trans|Ci fib]
+4.8 +1.8 81 +6  1014.5  -0.6  745  295           
03 13.12.17 тихо ()   10 км    5/0 средняя 
[Ac trans]
+4.9 +1.4 78 +5  1014.2  -0.3  745  295           
06 13.12.17 тихо ()   20000 м    3/1 360 м средняя, верхняя 
[Ac trans|Ci fib]
+3 +1.2 88 +3  1014.5  0.2  745  297  +1         
09 13.12.17 тихо ()   20000 м  туман на расстоянии  10/3 600 м средняя 
[Sc|Ac lent]
+6.3 +3.3 81 +6  1014.1  -0.1  745  293           
12 13.12.17 330 (СЗ) 4000 м  дымка  10/6 600 м средняя 
[Sc|Ac trans]
+7.4 +2.5 71 +7  1013.2  -0.9  744  292           
15 13.12.17 310 (СЗ) 10 км    10/4 600 м средняя, верхняя 
[Sc|Ac trans|Ci fib]
+4.4 +1.8 83 +2  1014  0.6  745  295           
18 13.12.17 320 (СЗ) 10 км    10/6 600 м средняя 
[Sc|Ac trans]
+4 +2.7 91 +2  1013.9  -0.1  745  295    +8.4       
21 13.12.17 330 (СЗ) 0500 м  туман  ?/?  
+3.2 +2.5 95 +3  1012.7  -1.3  744  296           
00 14.12.17 тихо ()   1000 м  туман{морось}  ?/?  
+2.9 +2.3 96 +3  1011.6  -1.1  743  296           
03 14.12.17 330 (СЗ) 4000 м  слаб. дождь  10/10 600 м 
[Sc]
+2.7 +2.1 96 +3  1011  -0.6  743  296           
06 14.12.17 тихо ()   0200 м  туман{дождь}  ?/?  
+2.5 +1.9 96 +3  1010.6  -0.4  742  296  +2.5       
09 14.12.17 220 (ЮЗ) 10 км  {туман}  10/10 600 м 
[Sc]
+3.2 +2.6 96 +1  1010  -0.5  742  295           
12 14.12.17 200 (Ю) 10 км  {туман}  10/10 600 м 
[Sc]
+3.2 +2.5 95 +1  1008.3  -1.7  741  295           
Время (UTC), дата Ветер
(°,м/с) 
Видим.   Явления Облачность Т
(°С)
Тd
(°С)
f(%) Тe
(°С)
Pmin
(гПа)
dP
(гПа)
Po
(мм)
O2
(г/м3)
Тmin Tmax R s Состояние
почвы

Для получения пояснительной информации подведите курсор к названию столбца.

ПОГОДА в Кишиневе - архив

Всё, что Вы хотите узнать о погоде в Кишиневе - удобно и подробно!

Выберите нужную дату (начиная с 1 января 2015* года) и нажмите кнопку "Найти".
Будут отображены архивные сводки погоды по пункту Кишинев, начиная с указанной даты.


Отображать данные в формате CSV (для использования в таблицах Excel)


Внимание! Наш архив погоды предназначен исключительно для личного некоммерческого использования в познавательных целях. Если Вам необходимы официальные справки о состоянии погоды (для производственных, юридических, коммерческих и т.п. целей), обращайтесь в органы Росгидромета.

*Примечание: данная дата относится к архиву по метеостанциям СССР (Россия, СНГ, Балтия).
Архив по метеостанциям Зарубежной Европы и Азии (кроме Китая) хранится 10 дней, по другим регионам земного шара (Китай, Африка, Америка, Австралия, Океания) - 1 день.

Кишинев - район местоположения метеостанции


Название, широта, долгота, высота метеостанции:
Кишинев 47°ш. 29°д. 173 м над ур. моря [Молдавия]

Дополнительная информация

В oтличие oт бoльшинства пoгoдных сайтoв мы публикуем пoдрoбную метеoинфoрмацию в детальнoм прoфессиoнальнoм фoрмате.

Характеристики температуры и влажнoсти вoздуха измеряются на высoте 2 м в тени вдали oт зданий и деревьев.
Скoрoсть ветра измеряется на высoте 10 м (на урoвне рoста челoвека скoрoсть ветра ниже в 1.5-2 раза). Если метеoстанция нахoдится в гoрoде или в лесу, тo скoрoсть ветра занижена на 2-4 м/с пo сравнению с oткрытым местoм. Скoрoсть ветра над акватoриями крупных рек и oзёр, а также на вершинах хoлмoв на 2-5 м/с выше, чем в oбычных услoвиях.
Атмoсфернoе давление в разных тoчках местнoсти мoжет значительнo oтличаться oт давления на метеoстанции, в зависимoсти oт услoвий рельефа (при пoдъёме на 10 м давление пoнижается примернo на 1 мм рт.ст.).